HLLM

Details ICAO HLLM (MJI)
Name MITIGA
Region Libya
Timezone Africa/Tripoli (UTC+2.0)
Plans Departing 236
Arriving 71
Stats Elevation 36 ft / 11 m (AMSL)
Location 32.895083° 13.282417°
Runways 2
Magnetic Variation 2.687° E
Sunrise 2018-05-26 04:03:07 UTC / 2018-05-26 06:03:07 Local
Sunset 2018-05-26 18:07:35 UTC / 2018-05-26 20:07:35 Local
Advertisement - Login to hide

Runways

ID Width Length Bearing (true) Bearing (mag) Surface Threshold Offset Overrun Length
03 148 ft / 45 m 5,966 ft / 1,819 m 29.95° 27.26° Asphalt 0 ft / 0 m 0 ft / 0 m
11 148 ft / 45 m 11,038 ft / 3,365 m 105.44° 102.75° Asphalt 0 ft / 0 m 900 ft / 274 m
21 148 ft / 45 m 5,966 ft / 1,819 m 209.95° 207.26° Asphalt 0 ft / 0 m 0 ft / 0 m
29 148 ft / 45 m 11,038 ft / 3,365 m 285.46° 282.77° Asphalt 0 ft / 0 m 1,000 ft / 305 m

Map

Weather


0- 5 10 15 20 25 30 35+ Temperature / ° C

Clouds and Precipitation
Forecast for 2018-05-26 18:00 UTC. Updated 3 hours ago

Ground ~20,000 ft ~40,000 ft Winds

METAR

HLLM 261850Z 10010KT 7000 NSC 20/17 Q1017

TAF

Not found

Frequencies

Tower 120.20 MHz TWR
Tower 126.30 MHz TWR
Warning: Do not use this data for real-world aviation or navigation. No guarantee of current accuracy is given.